Moody AFB, GA

4:41 AM EST on January 18, 2017 (GMT -0500)
Moody Air Force Base

Weather History for KVAD - March, 2013

Change the Weather History Date:

Wednesday, March 20, 2013

  Actual Average Record
Temperature  
Mean Temperature 56 °F -  
Max Temperature 66 °F 71 °F 86 °F (2003)
Min Temperature 46 °F 50 °F 42 °F (2007)
Degree Days  
Heating Degree Days 8    
Growing Degree Days 6 (Base 50)    
Moisture  
Dew Point 35 °F    
Average Humidity 47    
Maximum Humidity 71    
Minimum Humidity 27    
Precipitation  
Precipitation 0.00 in - - ()
Sea Level Pressure  
Sea Level Pressure 29.99 in    
Wind  
Wind Speed 7 mph (North)    
Max Wind Speed 13 mph    
Max Gust Speed -    
Visibility 10 miles    
Events Rain    
Averages and records for this station are not official NWS values.
T = Trace of Precipitation, MM = Missing Value Source: NWS Daily Summary

Daily Weather History Graph

Daily Weather History Graph

Search for Another Location

Airport or City:

Trip Planner

Search our weather history database for the weather conditions in past years. The results will help you decide how hot, cold, wet, or windy it might be!

Date:

Astronomy

Mar. 20, 2013 Rise Set
Actual Time 7:36 AM EDT 7:44 PM EDT
Civil Twilight 7:12 AM EDT 8:08 PM EDT
Nautical Twilight 6:44 AM EDT 8:36 PM EDT
Astronomical Twilight 6:15 AM EDT 9:05 PM EDT
Moon 1:39 PM EDT (3/20) 2:54 AM EDT (3/20)
Length of Visible Light 12h 56m
Length of Day
12h 08m
First Quarter, 59% of the Moon is Illuminated
Mar 20
First Quarter
Mar 27
Full
Apr 3
Last Quarter
Apr 10
New
Apr 18
First Quarter

Hourly Weather History & Observations

Time (EDT) Temp. Windchill Dew Point Humidity Pressure Visibility Wind Dir Wind Speed Gust Speed Precip Events Conditions
12:58 AM 53.4 °F - 44.1 °F 71% 30.01 in 10.0 mi NNE 5.8 mph - N/A   Clear
1:58 AM 52.9 °F - 39.6 °F 61% 30.01 in 10.0 mi NE 2.3 mph - N/A   Clear
2:58 AM 50.0 °F - 38.1 °F 64% 30.01 in 10.0 mi North 5.8 mph - N/A   Clear
3:58 AM 51.3 °F - 37.6 °F 60% 29.99 in 10.0 mi NE 2.3 mph - N/A   Mostly Cloudy
4:58 AM 51.3 °F - 37.9 °F 60% 29.98 in 10.0 mi NE 5.8 mph - N/A   Overcast
5:58 AM 51.8 °F - 36.9 °F 57% 29.99 in 10.0 mi NNE 8.1 mph - N/A   Overcast
6:58 AM 52.2 °F - 34.9 °F 52% 30.01 in 10.0 mi NNE 6.9 mph - N/A   Mostly Cloudy
7:58 AM 51.8 °F - 34.7 °F 52% 30.04 in 10.0 mi NNE 9.2 mph - N/A   Overcast
8:58 AM 53.1 °F - 34.3 °F 49% 30.08 in 10.0 mi NNE 9.2 mph - N/A   Mostly Cloudy
9:58 AM 54.9 °F - 31.5 °F 41% 30.08 in 10.0 mi NE 9.2 mph - N/A   Mostly Cloudy
10:48 AM 60.8 °F - 28.4 °F 29% 30.07 in 10.0 mi NE 11.5 mph - N/A Rain Light Rain
10:58 AM 62.1 °F - 29.5 °F 29% 30.07 in 10.0 mi NE 12.7 mph - 0.00 in Rain Light Rain
10:59 AM 62.6 °F - 28.4 °F 27% 30.07 in 10.0 mi NE 11.5 mph - N/A   Scattered Clouds
11:58 AM 61.3 °F - 29.7 °F 30% 30.05 in 10.0 mi NE 10.4 mph - 0.00 in   Mostly Cloudy
12:58 PM 63.7 °F - 30.4 °F 29% 30.02 in 10.0 mi ENE 10.4 mph - N/A   Overcast
1:58 PM 66.6 °F - 32.5 °F 28% 29.98 in 10.0 mi North 11.5 mph - N/A   Overcast
2:58 PM 66.0 °F - 33.3 °F 30% 29.96 in 10.0 mi North 5.8 mph - N/A   Mostly Cloudy
3:58 PM 65.1 °F - 34.3 °F 32% 29.95 in 10.0 mi NNW 8.1 mph - N/A   Mostly Cloudy
4:58 PM 64.4 °F - 35.8 °F 35% 29.94 in 10.0 mi NNW 6.9 mph - N/A   Partly Cloudy
5:58 PM 63.3 °F - 38.3 °F 40% 29.93 in 10.0 mi NW 9.2 mph - N/A   Partly Cloudy
6:58 PM 61.7 °F - 41.4 °F 47% 29.90 in 10.0 mi NW 5.8 mph - N/A   Partly Cloudy
7:58 PM 57.9 °F - 40.5 °F 52% 29.91 in 10.0 mi NW 6.9 mph - N/A   Clear
8:58 PM 53.8 °F - 37.4 °F 54% 29.92 in 10.0 mi NW 5.8 mph - N/A   Clear
9:58 PM 49.5 °F - 38.7 °F 66% 29.93 in 10.0 mi NW 5.8 mph - N/A   Clear
10:58 PM 47.3 °F - 38.5 °F 71% 29.94 in 10.0 mi WNW 6.9 mph - N/A   Clear
11:54 PM 46.4 °F 42.4 °F 35.6 °F 66% 29.93 in 10.0 mi NW 8.1 mph - N/A   Clear